[keps] orb09176.amsat

Ray Hoad r.hoad at att.net
Thu Jun 25 19:28:10 PDT 2009


SB KEPS @ AMSAT  $ORB09176.O
Orbital Elements  09176.OSCAR

HR AMSAT ORBITAL ELEMENTS FOR OSCAR SATELLITES
FROM WA5QGD FORT WORTH,TX June 25, 2009
Send Subscribe/unsubscribe to KEPS at 
http://www.amsat.org/mailman/listinfo/keps
BID: ORB09176.O
TO ALL RADIO AMATEURS BT

Satellite: AO-07
Catalog number: 07530
Epoch time:      09175.75015012
Element set:     512
Inclination:      101.4266 deg
RA of node:       200.1487 deg
Eccentricity:    0.0011548
Arg of perigee:   253.4118 deg
Mean anomaly:     106.5685 deg
Mean motion:   12.53575790 rev/day
Decay rate:       -2.7e-07 rev/day^2
Epoch rev:           58366
Checksum:              282

Satellite: FO-29
Catalog number: 24278
Epoch time:      09175.76747098
Element set:    0086
Inclination:      098.5539 deg
RA of node:       048.7848 deg
Eccentricity:    0.0350587
Arg of perigee:   330.9181 deg
Mean anomaly:     027.2821 deg
Mean motion:   13.52944157 rev/day
Decay rate:       -3.7e-07 rev/day^2
Epoch rev:           63477
Checksum:              361

Satellite: SO-33
Catalog number: 25509
Epoch time:      09175.88466058
Element set:    0484
Inclination:      031.4322 deg
RA of node:       008.9480 deg
Eccentricity:    0.0354276
Arg of perigee:   045.8279 deg
Mean anomaly:     317.0947 deg
Mean motion:   14.28254882 rev/day
Decay rate:       3.81e-06 rev/day^2
Epoch rev:           55693
Checksum:              341

Satellite: RS-22
Catalog number: 27939
Epoch time:      09175.58345773
Element set:    0824
Inclination:      097.9444 deg
RA of node:       050.1848 deg
Eccentricity:    0.0014639
Arg of perigee:   107.5940 deg
Mean anomaly:     252.6873 deg
Mean motion:   14.63325076 rev/day
Decay rate:       1.53e-06 rev/day^2
Epoch rev:           30665
Checksum:              333

Satellite: VO-52
Catalog number: 28650
Epoch time:      09175.34334044
Element set:    0257
Inclination:      097.7424 deg
RA of node:       236.6888 deg
Eccentricity:    0.0027183
Arg of perigee:   008.8245 deg
Mean anomaly:     351.3438 deg
Mean motion:   14.81596988 rev/day
Decay rate:       3.76e-06 rev/day^2
Epoch rev:           22370
Checksum:              337

/EX
SB KEPS @ AMSAT  $ORB09176.D
Orbital Elements  09176.MICROS

HR AMSAT ORBITAL ELEMENTS FOR THE MICROSATS
FROM WA5QGD FORT WORTH,TX June 25, 2009
Send Subscribe/unsubscribe to KEPS at 
http://www.amsat.org/mailman/listinfo/keps
BID: ORB09176.D
TO ALL RADIO AMATEURS BT

Satellite: AO-16
Catalog number: 20439
Epoch time:      09175.47168576
Element set:    0635
Inclination:      098.2785 deg
RA of node:       143.5419 deg
Eccentricity:    0.0011258
Arg of perigee:   144.6504 deg
Mean anomaly:     215.5414 deg
Mean motion:   14.31826786 rev/day
Decay rate:       -1.8e-07 rev/day^2
Epoch rev:           01419
Checksum:              316

Satellite: LO-19
Catalog number: 20442
Epoch time:      09175.45760117
Element set:    0555
Inclination:      098.2408 deg
RA of node:       150.7636 deg
Eccentricity:    0.0012428
Arg of perigee:   141.9606 deg
Mean anomaly:     218.2471 deg
Mean motion:   14.32062565 rev/day
Decay rate:        2.1e-07 rev/day^2
Epoch rev:           01435
Checksum:              279

Satellite: AO-27
Catalog number: 22825
Epoch time:      09175.56625056
Element set:    0275
Inclination:      098.4363 deg
RA of node:       128.7578 deg
Eccentricity:    0.0007725
Arg of perigee:   237.6929 deg
Mean anomaly:     122.3504 deg
Mean motion:   14.29267387 rev/day
Decay rate:      -1.00e-06 rev/day^2
Epoch rev:           82096
Checksum:              332

Satellite: IO-26
Catalog number: 22826
Epoch time:      09176.74504781
Element set:       2
Inclination:      098.4300 deg
RA of node:       130.6439 deg
Eccentricity:    0.0008091
Arg of perigee:   232.0525 deg
Mean anomaly:     127.9928 deg
Mean motion:   14.29519950 rev/day
Decay rate:       -1.9e-07 rev/day^2
Epoch rev:           82123
Checksum:              297

Satellite: GO-32
Catalog number: 25397
Epoch time:      09175.73599878
Element set:    0927
Inclination:      098.3262 deg
RA of node:       197.6718 deg
Eccentricity:    0.0000667
Arg of perigee:   180.5458 deg
Mean anomaly:     179.5710 deg
Mean motion:   14.23160891 rev/day
Decay rate:       1.18e-06 rev/day^2
Epoch rev:           56920
Checksum:              353

Satellite: NO-44
Catalog number: 26931
Epoch time:      09175.70042414
Element set:    0202
Inclination:      067.0532 deg
RA of node:       044.9895 deg
Eccentricity:    0.0005659
Arg of perigee:   272.6391 deg
Mean anomaly:     087.4033 deg
Mean motion:   14.29560557 rev/day
Decay rate:        9.0e-07 rev/day^2
Epoch rev:           40365
Checksum:              301

Satellite: SO-50
Catalog number: 27607
Epoch time:      09175.52809685
Element set:    0918
Inclination:      064.5582 deg
RA of node:       002.7936 deg
Eccentricity:    0.0066368
Arg of perigee:   204.0590 deg
Mean anomaly:     155.7400 deg
Mean motion:   14.71442765 rev/day
Decay rate:       -8.3e-07 rev/day^2
Epoch rev:           34975
Checksum:              330

Satellite: CO-55
Catalog number: 27844
Epoch time:      09176.72554986
Element set:     608
Inclination:      098.7127 deg
RA of node:       185.7703 deg
Eccentricity:    0.0010937
Arg of perigee:   115.9668 deg
Mean anomaly:     244.2612 deg
Mean motion:   14.20643376 rev/day
Decay rate:        1.1e-07 rev/day^2
Epoch rev:           31047
Checksum:              324

Satellite: CO-57
Catalog number: 27848
Epoch time:      09175.57723077
Element set:     555
Inclination:      098.7141 deg
RA of node:       183.6982 deg
Eccentricity:    0.0010218
Arg of perigee:   121.6656 deg
Mean anomaly:     238.5513 deg
Mean motion:   14.20444859 rev/day
Decay rate:        1.8e-07 rev/day^2
Epoch rev:           31027
Checksum:              323

Satellite: AO-51
Catalog number: 28375
Epoch time:      09176.57690259
Element set:     421
Inclination:      098.0512 deg
RA of node:       185.6902 deg
Eccentricity:    0.0084770
Arg of perigee:   099.1173 deg
Mean anomaly:     261.9616 deg
Mean motion:   14.40645546 rev/day
Decay rate:        3.0e-08 rev/day^2
Epoch rev:           26216
Checksum:              318

Satellite: CO-56
Catalog number: 28941
Epoch time:      09176.55364702
Element set:     197
Inclination:      098.1393 deg
RA of node:       352.5601 deg
Eccentricity:    0.0082223
Arg of perigee:   101.0558 deg
Mean anomaly:     259.9954 deg
Mean motion:   15.85707484 rev/day
Decay rate:     6.5207e-04 rev/day^2
Epoch rev:           18857
Checksum:              348

Satellite: GENESAT1
Catalog number: 29655
Epoch time:      09175.96435867
Element set:    0746
Inclination:      040.0233 deg
RA of node:       134.5766 deg
Eccentricity:    0.0002092
Arg of perigee:   231.9162 deg
Mean anomaly:     128.1467 deg
Mean motion:   15.65742955 rev/day
Decay rate:      7.422e-05 rev/day^2
Epoch rev:           14369
Checksum:              320

Satellite: CP3
Catalog number: 31129
Epoch time:      09176.71624616
Element set:      18
Inclination:      097.9885 deg
RA of node:       229.3834 deg
Eccentricity:    0.0101257
Arg of perigee:   258.7852 deg
Mean anomaly:     100.1941 deg
Mean motion:   14.52141115 rev/day
Decay rate:       1.02e-06 rev/day^2
Epoch rev:           11612
Checksum:              278

Satellite: CO-65
Catalog number: 32785
Epoch time:      09176.70268926
Element set:     400
Inclination:      097.9453 deg
RA of node:       240.5990 deg
Eccentricity:    0.0015235
Arg of perigee:   008.3830 deg
Mean anomaly:     351.7612 deg
Mean motion:   14.81493670 rev/day
Decay rate:        9.6e-07 rev/day^2
Epoch rev:            6270
Checksum:              316

Satellite: KKS-1
Catalog number: 33493
Epoch time:      09176.88419017
Element set:     508
Inclination:      098.0580 deg
RA of node:       289.1313 deg
Eccentricity:    0.0019414
Arg of perigee:   210.4079 deg
Mean anomaly:     149.6019 deg
Mean motion:   14.80688384 rev/day
Decay rate:       1.86e-06 rev/day^2
Epoch rev:            2275
Checksum:              317

Satellite: SOHLA-1
Catalog number: 33496
Epoch time:      09176.83034283
Element set:     470
Inclination:      098.0391 deg
RA of node:       286.0037 deg
Eccentricity:    0.0005305
Arg of perigee:   254.2821 deg
Mean anomaly:     105.7805 deg
Mean motion:   14.69437775 rev/day
Decay rate:        2.0e-08 rev/day^2
Epoch rev:            2254
Checksum:              290

/EX
SB KEPS @ AMSAT  $ORB09176.W
Orbital Elements  09176.WEATHER

HR AMSAT ORBITAL ELEMENTS FOR WEATHER SATELLITES
FROM WA5QGD FORT WORTH,TX June 25, 2009
Send Subscribe/unsubscribe to KEPS at 
http://www.amsat.org/mailman/listinfo/keps
BID: ORB09176.W
TO ALL RADIO AMATEURS BT

Satellite: NOAA-10
Catalog number: 16969
Epoch time:      09175.72772319
Element set:    0664
Inclination:      098.6905 deg
RA of node:       202.3341 deg
Eccentricity:    0.0012293
Arg of perigee:   171.0362 deg
Mean anomaly:     189.1022 deg
Mean motion:   14.27389512 rev/day
Decay rate:        8.4e-07 rev/day^2
Epoch rev:           18458
Checksum:              311

Satellite: NOAA-11
Catalog number: 19531
Epoch time:      09175.49113686
Element set:    0677
Inclination:      098.7869 deg
RA of node:       265.3322 deg
Eccentricity:    0.0012413
Arg of perigee:   089.4171 deg
Mean anomaly:     270.8423 deg
Mean motion:   14.14897749 rev/day
Decay rate:       -1.0e-08 rev/day^2
Epoch rev:           07055
Checksum:              323

Satellite: NOAA-12
Catalog number: 21263
Epoch time:      09175.96824484
Element set:    0189
Inclination:      098.7709 deg
RA of node:       184.0309 deg
Eccentricity:    0.0013207
Arg of perigee:   120.1820 deg
Mean anomaly:     240.0669 deg
Mean motion:   14.25583101 rev/day
Decay rate:        5.0e-08 rev/day^2
Epoch rev:           94150
Checksum:              287

